| time (UTC) | temp F | wind direction | speed MPH | gust MPH | rain 1hr in | rain 24hr in | rain mn in | humidity % | barometer mb |
| 20260503005921 | 40 | 15 | 2.0 | 2.0 | 0.00 | 0.00 | 0.00 | 67 | 1013.0 |
| 20260503005418 | 40 | 6 | 2.0 | 3.0 | 0.00 | 0.00 | 0.00 | 66 | 1012.9 |
| 20260503004914 | 40 | 290 | 2.0 | 3.0 | 0.00 | 0.00 | 0.00 | 66 | 1012.8 |
| 20260503004411 | 40 | 5 | 4.0 | 4.0 | 0.00 | 0.00 | 0.00 | 66 | 1012.8 |
| 20260503003909 | 40 | 338 | 2.0 | 2.0 | 0.00 | 0.00 | 0.00 | 67 | 1012.7 |
| 20260503003405 | 41 | 350 | 4.0 | 4.0 | 0.00 | 0.00 | 0.00 | 65 | 1012.6 |
| 20260503002903 | 41 | 33 | 4.0 | 7.0 | 0.00 | 0.00 | 0.00 | 64 | 1012.7 |
| 20260503002400 | 41 | 310 | 6.0 | 8.0 | 0.00 | 0.00 | 0.00 | 62 | 1012.6 |
| 20260503001856 | 41 | 352 | 4.0 | 4.0 | 0.00 | 0.00 | 0.00 | 60 | 1012.8 |
| 20260503001353 | 41 | 270 | 4.0 | 4.0 | 0.00 | 0.00 | 0.00 | 59 | 1012.8 |
| 20260503000850 | 41 | 310 | 5.0 | 6.0 | 0.00 | 0.00 | 0.00 | 59 | 1012.5 |
| 20260503000348 | 41 | 351 | 2.0 | 2.0 | 0.00 | 0.00 | 0.00 | 59 | 1012.6 |
| 20260502235844 | 41 | 333 | 2.0 | 3.0 | 0.00 | 0.00 | 0.00 | 58 | 1012.7 |
| 20260502235341 | 41 | 339 | 2.0 | 2.0 | 0.00 | 0.00 | 0.00 | 58 | 1012.6 |
| 20260502234838 | 42 | 329 | 2.0 | 3.0 | 0.00 | 0.00 | 0.00 | 58 | 1012.6 |
| 20260502234335 | 42 | 9 | 3.0 | 6.0 | 0.00 | 0.00 | 0.00 | 58 | 1012.5 |
| 20260502233832 | 42 | 358 | 3.0 | 4.0 | 0.00 | 0.00 | 0.00 | 56 | 1012.5 |
| 20260502233328 | 42 | 357 | 2.0 | 3.0 | 0.00 | 0.00 | 0.00 | 56 | 1012.4 |
| 20260502232825 | 42 | 351 | 3.0 | 3.0 | 0.00 | 0.00 | 0.00 | 56 | 1012.5 |
| 20260502232321 | 42 | 348 | 4.0 | 4.0 | 0.00 | 0.00 | 0.00 | 54 | 1012.4 |
| 20260502231818 | 42 | 345 | 1.0 | 2.0 | 0.00 | 0.00 | 0.00 | 55 | 1012.4 |
| 20260502231316 | 42 | 351 | 5.0 | 6.0 | 0.00 | 0.00 | 0.00 | 54 | 1012.4 |
| 20260502230814 | 43 | 336 | 4.0 | 4.0 | 0.00 | 0.00 | 0.00 | 55 | 1012.4 |
| 20260502230312 | 43 | 333 | 3.0 | 3.0 | 0.00 | 0.00 | 0.00 | 56 | 1012.3 |
| 20260502225808 | 43 | 345 | 2.0 | 2.0 | 0.00 | 0.00 | 0.00 | 54 | 1012.4 |
| 20260502225305 | 43 | 335 | 5.0 | 7.0 | 0.00 | 0.00 | 0.00 | 53 | 1012.2 |
| 20260502224801 | 43 | 356 | 2.0 | 2.0 | 0.00 | 0.00 | 0.00 | 54 | 1012.1 |
| 20260502224258 | 43 | 325 | 4.0 | 4.0 | 0.00 | 0.00 | 0.00 | 53 | 1012.0 |
| 20260502223755 | 43 | 344 | 3.0 | 3.0 | 0.00 | 0.00 | 0.00 | 53 | 1012.2 |
| 20260502223254 | 43 | 354 | 7.0 | 9.0 | 0.00 | 0.00 | 0.00 | 50 | 1012.1 |
| 20260502222751 | 44 | 323 | 3.0 | 3.0 | 0.00 | 0.00 | 0.00 | 51 | 1012.2 |
| 20260502222248 | 44 | 311 | 6.0 | 7.0 | 0.00 | 0.00 | 0.00 | 51 | 1012.2 |
| 20260502221743 | 44 | 298 | 6.0 | 8.0 | 0.00 | 0.00 | 0.00 | 52 | 1012.0 |
| 20260502221240 | 44 | 328 | 5.0 | 7.0 | 0.00 | 0.00 | 0.00 | 52 | 1012.0 |
| 20260502220737 | 44 | 281 | 5.0 | 7.0 | 0.00 | 0.00 | 0.00 | 51 | 1012.0 |
| 20260502220233 | 44 | 327 | 6.0 | 7.0 | 0.00 | 0.00 | 0.00 | 50 | 1012.0 |
| 20260502215730 | 44 | 263 | 3.0 | 3.0 | 0.00 | 0.00 | 0.00 | 50 | 1012.0 |
| 20260502215227 | 44 | 353 | 3.0 | 3.0 | 0.00 | 0.00 | 0.00 | 52 | 1012.0 |
| 20260502214724 | 44 | 343 | 7.0 | 8.0 | 0.00 | 0.00 | 0.00 | 49 | 1012.1 |
| 20260502214221 | 44 | 235 | 2.0 | 2.0 | 0.00 | 0.00 | 0.00 | 50 | 1012.2 |
| 20260502213718 | 44 | 300 | 6.0 | 8.0 | 0.00 | 0.00 | 0.00 | 49 | 1012.0 |
| 20260502213216 | 44 | 324 | 8.0 | 9.0 | 0.00 | 0.00 | 0.00 | 49 | 1012.1 |
| 20260502212714 | 44 | 316 | 3.0 | 3.0 | 0.00 | 0.00 | 0.00 | 52 | 1011.9 |
| 20260502212212 | 44 | 274 | 4.0 | 6.0 | 0.00 | 0.00 | 0.00 | 51 | 1012.0 |
| 20260502211708 | 44 | 334 | 3.0 | 4.0 | 0.00 | 0.00 | 0.00 | 52 | 1012.1 |
| 20260502211205 | 44 | 289 | 1.0 | 1.0 | 0.00 | 0.00 | 0.00 | 51 | 1011.9 |
| 20260502210702 | 44 | 222 | 2.0 | 3.0 | 0.00 | 0.00 | 0.00 | 52 | 1012.0 |
| 20260502210159 | 44 | 276 | 5.0 | 7.0 | 0.00 | 0.00 | 0.00 | 52 | 1011.9 |
| 20260502205656 | 44 | 277 | 3.0 | 6.0 | 0.00 | 0.00 | 0.00 | 52 | 1012.0 |
| 20260502205152 | 44 | 263 | 5.0 | 6.0 | 0.00 | 0.00 | 0.00 | 51 | 1012.2 |
| 20260502204649 | 45 | 321 | 1.0 | 2.0 | 0.00 | 0.00 | 0.00 | 51 | 1011.9 |
| 20260502204147 | 45 | 272 | 1.0 | 1.0 | 0.00 | 0.00 | 0.00 | 53 | 1012.1 |
| 20260502203644 | 45 | 356 | 7.0 | 8.0 | 0.00 | 0.00 | 0.00 | 51 | 1012.0 |
| 20260502203142 | 45 | 3 | 3.0 | 3.0 | 0.00 | 0.00 | 0.00 | 51 | 1012.0 |
| 20260502202637 | 44 | 264 | 2.0 | 2.0 | 0.00 | 0.00 | 0.00 | 52 | 1012.1 |
| 20260502202135 | 44 | 340 | 3.0 | 4.0 | 0.00 | 0.00 | 0.00 | 49 | 1012.4 |
| 20260502201632 | 45 | 263 | 2.0 | 3.0 | 0.00 | 0.00 | 0.00 | 51 | 1012.4 |
| 20260502201128 | 45 | 240 | 0.0 | 1.0 | 0.00 | 0.00 | 0.00 | 51 | 1012.2 |
| 20260502200624 | 44 | 13 | 1.0 | 2.0 | 0.00 | 0.00 | 0.00 | 51 | 1012.3 |
| 20260502200121 | 44 | 274 | 3.0 | 3.0 | 0.00 | 0.00 | 0.00 | 54 | 1012.3 |
| 20260502195620 | 45 | 5 | 3.0 | 6.0 | 0.00 | 0.00 | 0.00 | 49 | 1012.5 |
| 20260502195114 | 45 | 290 | 2.0 | 3.0 | 0.00 | 0.00 | 0.00 | 50 | 1012.4 |
| 20260502194612 | 45 | 244 | 3.0 | 3.0 | 0.00 | 0.00 | 0.00 | 50 | 1012.5 |
| 20260502194108 | 45 | 291 | 4.0 | 6.0 | 0.00 | 0.00 | 0.00 | 49 | 1012.5 |
| 20260502193605 | 44 | 210 | 1.0 | 1.0 | 0.00 | 0.00 | 0.00 | 48 | 1012.5 |
| 20260502193102 | 44 | 319 | 4.0 | 6.0 | 0.00 | 0.00 | 0.00 | 49 | 1012.8 |
| 20260502192557 | 45 | 295 | 6.0 | 7.0 | 0.00 | 0.00 | 0.00 | 47 | 1012.6 |
| 20260502192055 | 45 | 211 | 3.0 | 3.0 | 0.00 | 0.00 | 0.00 | 48 | 1012.6 |
| 20260502191552 | 45 | 262 | 4.0 | 6.0 | 0.00 | 0.00 | 0.00 | 47 | 1012.9 |
| 20260502191050 | 45 | 198 | 2.0 | 3.0 | 0.00 | 0.00 | 0.00 | 48 | 1012.7 |
| 20260502190547 | 45 | 234 | 5.0 | 7.0 | 0.00 | 0.00 | 0.00 | 48 | 1012.7 |
| 20260502190044 | 45 | 257 | 3.0 | 3.0 | 0.00 | 0.00 | 0.00 | 48 | 1012.7 |
| 20260502185538 | 45 | 223 | 4.0 | 4.0 | 0.00 | 0.00 | 0.00 | 46 | 1012.7 |
| 20260502185036 | 45 | 262 | 5.0 | 7.0 | 0.00 | 0.00 | 0.00 | 47 | 1012.5 |
| 20260502184532 | 46 | 201 | 3.0 | 3.0 | 0.00 | 0.00 | 0.00 | 46 | 1012.5 |
| 20260502184028 | 46 | 243 | 6.0 | 9.0 | 0.00 | 0.00 | 0.00 | 44 | 1012.6 |
| 20260502183524 | 46 | 279 | 3.0 | 3.0 | 0.00 | 0.00 | 0.00 | 44 | 1012.7 |
| 20260502183020 | 46 | 312 | 4.0 | 4.0 | 0.00 | 0.00 | 0.00 | 47 | 1012.6 |
| 20260502182515 | 46 | 188 | 2.0 | 2.0 | 0.00 | 0.00 | 0.00 | 44 | 1012.7 |
| 20260502182012 | 46 | 197 | 1.0 | 1.0 | 0.00 | 0.00 | 0.00 | 44 | 1012.4 |
| 20260502181510 | 45 | 92 | 0.0 | 0.0 | 0.00 | 0.00 | 0.00 | 45 | 1012.8 |
| 20260502181009 | 45 | 5 | 4.0 | 4.0 | 0.00 | 0.00 | 0.00 | 46 | 1012.8 |
| 20260502180505 | 45 | 305 | 8.0 | 9.0 | 0.00 | 0.00 | 0.00 | 46 | 1012.6 |
| 20260502170430 | 45 | 269 | 4.0 | 6.0 | 0.00 | 0.00 | 0.00 | 44 | 1012.8 |
| 20260502163913 | 45 | 218 | 2.0 | 3.0 | 0.00 | 0.00 | 0.00 | 44 | 1012.9 |
| 20260502163409 | 46 | 314 | 5.0 | 8.0 | 0.00 | 0.00 | 0.00 | 44 | 1012.9 |
| 20260502162908 | 46 | 334 | 9.0 | 13.0 | 0.00 | 0.00 | 0.00 | 48 | 1012.9 |
| 20260502162404 | 45 | 343 | 7.0 | 8.0 | 0.00 | 0.00 | 0.00 | 50 | 1013.0 |
| 20260502161901 | 46 | 358 | 11.0 | 11.0 | 0.00 | 0.00 | 0.00 | 45 | 1012.8 |
| 20260502161357 | 46 | 349 | 7.0 | 9.0 | 0.00 | 0.00 | 0.00 | 50 | 1012.9 |
| 20260502160855 | 46 | 353 | 10.0 | 10.0 | 0.00 | 0.00 | 0.00 | 50 | 1013.0 |
| 20260502160353 | 46 | 210 | 5.0 | 8.0 | 0.00 | 0.00 | 0.00 | 49 | 1013.0 |
| 20260502152328 | 44 | 350 | 9.0 | 9.0 | 0.00 | 0.00 | 0.00 | 49 | 1012.9 |
| 20260502151826 | 44 | 277 | 7.0 | 8.0 | 0.00 | 0.00 | 0.00 | 45 | 1012.9 |
| 20260502151322 | 44 | 290 | 6.0 | 7.0 | 0.00 | 0.00 | 0.00 | 47 | 1013.0 |
| 20260502150820 | 44 | 8 | 7.0 | 9.0 | 0.00 | 0.00 | 0.00 | 50 | 1012.9 |
| 20260502150316 | 45 | 305 | 6.0 | 9.0 | 0.00 | 0.00 | 0.00 | 45 | 1013.1 |
| 20260502130704 | 40 | 34 | 7.0 | 8.0 | 0.00 | 0.00 | 0.00 | 72 | 1013.2 |
| 20260502130202 | 41 | 271 | 6.0 | 8.0 | 0.00 | 0.00 | 0.00 | 71 | 1013.4 |
| 20260502123648 | 40 | 290 | 3.0 | 3.0 | 0.00 | 0.00 | 0.00 | 77 | 1013.1 |
| 20260502123145 | 40 | 310 | 4.0 | 4.0 | 0.00 | 0.00 | 0.00 | 73 | 1013.4 |
| 20260502122641 | 39 | 273 | 6.0 | 7.0 | 0.00 | 0.00 | 0.00 | 76 | 1013.3 |
| 20260502122138 | 39 | 319 | 8.0 | 9.0 | 0.00 | 0.00 | 0.00 | 73 | 1013.3 |
| 20260502121636 | 39 | 342 | 10.0 | 13.0 | 0.00 | 0.00 | 0.00 | 77 | 1013.1 |
| 20260502121133 | 39 | 328 | 5.0 | 7.0 | 0.00 | 0.00 | 0.00 | 76 | 1013.2 |
| 20260502120629 | 39 | 334 | 4.0 | 6.0 | 0.00 | 0.00 | 0.00 | 79 | 1013.1 |
| 20260502120126 | 39 | 358 | 8.0 | 11.0 | 0.00 | 0.00 | 0.00 | 78 | 1013.2 |
| 20260502115624 | 39 | 326 | 3.0 | 6.0 | 0.00 | 0.00 | 0.00 | 80 | 1013.1 |
| 20260502115120 | 39 | 327 | 3.0 | 6.0 | 0.00 | 0.00 | 0.00 | 84 | 1013.2 |
| 20260502114616 | 38 | 315 | 4.0 | 4.0 | 0.00 | 0.00 | 0.00 | 86 | 1013.0 |
| 20260502114114 | 38 | 313 | 3.0 | 4.0 | 0.00 | 0.00 | 0.00 | 85 | 1013.0 |
| 20260502113611 | 38 | 336 | 4.0 | 6.0 | 0.00 | 0.00 | 0.00 | 85 | 1013.1 |
| 20260502113109 | 38 | 305 | 5.0 | 7.0 | 0.00 | 0.00 | 0.00 | 86 | 1013.1 |
| 20260502112607 | 38 | 350 | 4.0 | 6.0 | 0.00 | 0.00 | 0.00 | 86 | 1013.1 |
| 20260502112104 | 38 | 317 | 4.0 | 6.0 | 0.00 | 0.00 | 0.00 | 87 | 1013.1 |
| 20260502111601 | 38 | 343 | 4.0 | 6.0 | 0.00 | 0.00 | 0.00 | 87 | 1013.1 |
| 20260502111059 | 38 | 306 | 2.0 | 3.0 | 0.00 | 0.00 | 0.00 | 88 | 1013.0 |
| 20260502110556 | 38 | 1 | 4.0 | 4.0 | 0.00 | 0.00 | 0.00 | 89 | 1013.1 |
| 20260502110053 | 38 | 313 | 4.0 | 6.0 | 0.00 | 0.00 | 0.00 | 91 | 1012.8 |
| 20260502105551 | 38 | 2 | 2.0 | 2.0 | 0.00 | 0.00 | 0.00 | 91 | 1012.9 |
| 20260502105048 | 37 | 328 | 2.0 | 2.0 | 0.00 | 0.00 | 0.00 | 91 | 1012.7 |
| 20260502104545 | 37 | 286 | 4.0 | 6.0 | 0.00 | 0.00 | 0.00 | 91 | 1012.8 |
| 20260502104043 | 37 | 334 | 3.0 | 4.0 | 0.00 | 0.00 | 0.00 | 92 | 1012.6 |
| 20260502103540 | 37 | 7 | 2.0 | 3.0 | 0.00 | 0.00 | 0.00 | 92 | 1012.6 |
| 20260502103038 | 38 | 4 | 1.0 | 2.0 | 0.00 | 0.00 | 0.00 | 92 | 1012.6 |
| 20260502102534 | 38 | 4 | 3.0 | 4.0 | 0.00 | 0.00 | 0.00 | 91 | 1012.7 |
| 20260502102031 | 38 | 7 | 2.0 | 2.0 | 0.00 | 0.00 | 0.00 | 92 | 1012.7 |
| 20260502101529 | 38 | 7 | 2.0 | 2.0 | 0.00 | 0.00 | 0.00 | 91 | 1012.7 |
| 20260502101027 | 38 | 292 | 3.0 | 3.0 | 0.00 | 0.00 | 0.00 | 91 | 1012.5 |
| 20260502100525 | 38 | 15 | 4.0 | 6.0 | 0.00 | 0.00 | 0.00 | 91 | 1012.7 |
| 20260502091500 | 38 | 335 | 3.0 | 3.0 | 0.00 | 0.00 | 0.00 | 93 | 1012.1 |
| 20260502090957 | 38 | 24 | 1.0 | 1.0 | 0.00 | 0.00 | 0.00 | 93 | 1012.0 |
| 20260502090454 | 38 | 325 | 3.0 | 3.0 | 0.00 | 0.00 | 0.00 | 93 | 1012.0 |
| 20260502071349 | 39 | 18 | 3.0 | 3.0 | 0.00 | 0.00 | 0.00 | 93 | 1011.5 |
| 20260502070847 | 39 | 12 | 2.0 | 2.0 | 0.00 | 0.00 | 0.00 | 93 | 1011.5 |
| 20260502070344 | 39 | 1 | 1.0 | 1.0 | 0.00 | 0.00 | 0.00 | 93 | 1011.6 |
| 20260502065843 | 39 | 13 | 1.0 | 2.0 | 0.00 | 0.00 | 0.00 | 93 | 1011.4 |
| 20260502065340 | 39 | 2 | 3.0 | 3.0 | 0.00 | 0.00 | 0.00 | 93 | 1011.4 |
| 20260502064838 | 39 | 337 | 2.0 | 2.0 | 0.00 | 0.00 | 0.00 | 94 | 1011.3 |
| 20260502064336 | 39 | 38 | 1.0 | 1.0 | 0.00 | 0.00 | 0.00 | 94 | 1011.3 |
| 20260502063833 | 39 | 9 | 4.0 | 4.0 | 0.00 | 0.00 | 0.00 | 94 | 1011.3 |
| 20260502063331 | 39 | 352 | 1.0 | 1.0 | 0.00 | 0.00 | 0.00 | 93 | 1011.5 |
| 20260502062828 | 39 | 18 | 0.0 | 1.0 | 0.00 | 0.00 | 0.00 | 92 | 1011.6 |
| 20260502062325 | 39 | 27 | 2.0 | 2.0 | 0.00 | 0.00 | 0.00 | 92 | 1011.5 |
| 20260502061824 | 39 | 359 | 2.0 | 3.0 | 0.00 | 0.00 | 0.00 | 92 | 1011.6 |
| 20260502061321 | 39 | 17 | 3.0 | 3.0 | 0.00 | 0.00 | 0.00 | 91 | 1011.4 |
| 20260502060817 | 39 | 353 | 3.0 | 3.0 | 0.00 | 0.00 | 0.00 | 92 | 1011.6 |
| 20260502060312 | 39 | 11 | 1.0 | 1.0 | 0.00 | 0.00 | 0.00 | 92 | 1011.9 |
| 20260502055810 | 39 | 303 | 2.0 | 3.0 | 0.00 | 0.00 | 0.00 | 92 | 1011.9 |
| 20260502055308 | 39 | 4 | 4.0 | 4.0 | 0.00 | 0.00 | 0.00 | 92 | 1011.4 |
| 20260502054807 | 39 | 340 | 4.0 | 4.0 | 0.00 | 0.00 | 0.00 | 93 | 1011.1 |
| 20260502054304 | 39 | 15 | 4.0 | 4.0 | 0.00 | 0.00 | 0.00 | 94 | 1011.3 |
| 20260502053802 | 40 | 6 | 1.0 | 1.0 | 0.00 | 0.00 | 0.00 | 94 | 1011.3 |
| 20260502053259 | 40 | 321 | 4.0 | 4.0 | 0.00 | 0.00 | 0.00 | 94 | 1011.4 |
| 20260502052756 | 40 | 309 | 4.0 | 6.0 | 0.00 | 0.00 | 0.00 | 94 | 1011.4 |
| 20260502052254 | 40 | 264 | 3.0 | 3.0 | 0.00 | 0.00 | 0.00 | 94 | 1011.4 |
| 20260502051752 | 40 | 290 | 4.0 | 4.0 | 0.00 | 0.00 | 0.00 | 95 | 1011.3 |
| 20260502051251 | 40 | 7 | 3.0 | 3.0 | 0.00 | 0.00 | 0.00 | 95 | 1011.5 |
| 20260502050746 | 40 | 0 | 3.0 | 4.0 | 0.00 | 0.00 | 0.00 | 95 | 1011.4 |
| 20260502050242 | 40 | 351 | 2.0 | 3.0 | 0.00 | 0.00 | 0.00 | 95 | 1011.8 |
| 20260502045740 | 40 | 350 | 2.0 | 3.0 | 0.00 | 0.00 | 0.00 | 95 | 1011.9 |
| 20260502045237 | 40 | 297 | 1.0 | 1.0 | 0.00 | 0.00 | 0.00 | 95 | 1011.9 |
| 20260502044733 | 40 | 301 | 1.0 | 2.0 | 0.00 | 0.00 | 0.00 | 95 | 1012.1 |
| 20260502044229 | 40 | 287 | 1.0 | 1.0 | 0.00 | 0.00 | 0.00 | 95 | 1011.8 |
| 20260502043727 | 41 | 319 | 1.0 | 2.0 | 0.00 | 0.00 | 0.00 | 95 | 1011.5 |
| 20260502043225 | 41 | 312 | 3.0 | 4.0 | 0.00 | 0.00 | 0.00 | 95 | 1011.4 |
| 20260502042724 | 41 | 332 | 3.0 | 4.0 | 0.00 | 0.00 | 0.00 | 94 | 1011.6 |
| 20260502042221 | 41 | 346 | 6.0 | 9.0 | 0.00 | 0.00 | 0.00 | 94 | 1011.5 |
| 20260502041719 | 41 | 346 | 2.0 | 2.0 | 0.00 | 0.00 | 0.00 | 94 | 1011.4 |
| 20260502041216 | 41 | 275 | 2.0 | 2.0 | 0.00 | 0.00 | 0.00 | 94 | 1011.4 |
| 20260502040713 | 41 | 356 | 4.0 | 4.0 | 0.00 | 0.00 | 0.00 | 94 | 1011.3 |
| 20260502040210 | 42 | 343 | 6.0 | 7.0 | 0.00 | 0.00 | 0.00 | 94 | 1011.3 |
| 20260502035706 | 42 | 336 | 4.0 | 9.0 | 0.00 | 0.10 | 0.10 | 96 | 1011.2 |
| 20260502035203 | 42 | 256 | 1.0 | 1.0 | 0.00 | 0.10 | 0.10 | 96 | 1010.9 |
| 20260502034700 | 42 | 180 | 0.0 | 0.0 | 0.00 | 0.10 | 0.10 | 95 | 1010.8 |
| 20260502034159 | 42 | 163 | 1.0 | 1.0 | 0.00 | 0.10 | 0.10 | 95 | 1010.9 |
| 20260502033656 | 42 | 160 | 0.0 | 0.0 | 0.00 | 0.10 | 0.10 | 95 | 1010.9 |
| 20260502033154 | 42 | 160 | 0.0 | 1.0 | 0.00 | 0.10 | 0.10 | 95 | 1011.1 |
| 20260502032650 | 42 | 170 | 0.0 | 0.0 | 0.05 | 0.10 | 0.10 | 95 | 1011.1 |
| 20260502032146 | 42 | 160 | 0.0 | 1.0 | 0.05 | 0.10 | 0.10 | 95 | 1011.3 |
| 20260502031644 | 42 | 185 | 2.0 | 2.0 | 0.00 | 0.09 | 0.09 | 95 | 1011.1 |
| 20260502031142 | 42 | 124 | 0.0 | 1.0 | 0.00 | 0.09 | 0.09 | 95 | 1011.3 |
| 20260502030641 | 42 | 149 | 0.0 | 0.0 | 0.00 | 0.09 | 0.09 | 94 | 1011.2 |
| 20260502030138 | 42 | 199 | 2.0 | 2.0 | 0.07 | 0.09 | 0.09 | 94 | 1011.1 |
| 20260502025635 | 42 | 184 | 1.0 | 2.0 | 0.07 | 0.09 | 0.09 | 94 | 1011.3 |
| 20260502025133 | 42 | 168 | 1.0 | 1.0 | 0.07 | 0.09 | 0.09 | 94 | 1011.3 |
| 20260502024631 | 42 | 275 | 5.0 | 7.0 | 0.00 | 0.08 | 0.08 | 94 | 1011.1 |
| 20260502024128 | 42 | 263 | 4.0 | 6.0 | 0.00 | 0.08 | 0.08 | 96 | 1011.3 |
| 20260502023626 | 42 | 184 | 0.0 | 0.0 | 0.00 | 0.08 | 0.08 | 97 | 1011.4 |
| 20260502023123 | 43 | 203 | 2.0 | 2.0 | 0.00 | 0.08 | 0.08 | 97 | 1011.4 |
| 20260502022620 | 43 | 175 | 0.0 | 0.0 | 0.07 | 0.08 | 0.08 | 97 | 1011.6 |
| 20260502022118 | 43 | 175 | 0.0 | 0.0 | 0.07 | 0.08 | 0.08 | 97 | 1011.4 |
| 20260502021615 | 43 | 175 | 1.0 | 1.0 | 0.00 | 0.07 | 0.07 | 97 | 1011.6 |
| 20260502021111 | 42 | 175 | 1.0 | 1.0 | 0.05 | 0.07 | 0.07 | 96 | 1011.3 |
| 20260502020609 | 43 | 175 | 0.0 | 1.0 | 0.05 | 0.07 | 0.07 | 96 | 1011.4 |
| 20260502020106 | 42 | 161 | 0.0 | 0.0 | 0.00 | 0.06 | 0.06 | 96 | 1011.4 |
| 20260502015604 | 42 | 161 | 0.0 | 0.0 | 0.00 | 0.06 | 0.06 | 96 | 1011.3 |
| 20260502015100 | 42 | 161 | 0.0 | 0.0 | 0.00 | 0.06 | 0.06 | 96 | 1011.1 |
| 20260502014557 | 42 | 161 | 0.0 | 0.0 | 0.00 | 0.06 | 0.06 | 96 | 1011.2 |
| 20260502014054 | 42 | 161 | 0.0 | 0.0 | 0.00 | 0.06 | 0.06 | 96 | 1011.1 |
| 20260502013549 | 43 | 155 | 0.0 | 1.0 | 0.00 | 0.06 | 0.06 | 96 | 1011.3 |
| 20260502013046 | 43 | 144 | 0.0 | 0.0 | 0.07 | 0.06 | 0.06 | 96 | 1011.2 |
| 20260502012543 | 43 | 144 | 0.0 | 0.0 | 0.07 | 0.06 | 0.06 | 95 | 1011.2 |
| 20260502012041 | 43 | 144 | 0.0 | 0.0 | 0.00 | 0.05 | 0.05 | 95 | 1011.3 |
| 20260502011537 | 43 | 141 | 0.0 | 0.0 | 0.00 | 0.05 | 0.05 | 95 | 1011.3 |
| 20260502011033 | 43 | 141 | 0.0 | 0.0 | 0.00 | 0.05 | 0.05 | 95 | 1011.2 |
| 20260502010531 | 43 | 141 | 0.0 | 0.0 | 0.00 | 0.05 | 0.05 | 95 | 1011.1 |
| 20260502010027 | 43 | 141 | 0.0 | 0.0 | 0.05 | 0.05 | 0.05 | 95 | 1011.1 |